FW5872 Weather Reports


Display with metric or nautical units.
time (UTC)temp
F
wind
direction
speed
MPH
gust
MPH
rain 1hr
in
rain 24hr
in
rain mn
in
humidity
%
barometer
mb
20260504173030 73 258 1.0 6.0 0.00 0.00 0.00 42 1012.9
20260504171530 72 358 1.0 7.0 0.00 0.00 0.00 39 1013.0
20260504081529 48 0 0.0 0.0 0.00 0.00 0.00 70 1015.8
20260504044528 45 0 0.0 0.0 0.00 0.00 0.00 70 1016.0
20260504043030 45 0 0.0 1.0 0.00 0.00 0.00 71 1015.9
20260504041529 45 0 0.0 0.0 0.00 0.00 0.00 69 1016.0
20260504040029 44 0 0.0 0.0 0.00 0.00 0.00 72 1016.0
20260504034528 44 0 0.0 0.0 0.00 0.00 0.00 74 1016.0
20260504033028 45 0 0.0 0.0 0.00 0.00 0.00 74 1015.8
20260504031530 45 0 0.0 0.0 0.00 0.00 0.00 73 1015.7
20260504030034 45 0 0.0 0.0 0.00 0.00 0.00 71 1015.7
20260504024529 46 0 0.0 0.0 0.00 0.00 0.00 68 1015.6
20260504023028 46 0 0.0 0.0 0.00 0.00 0.00 66 1015.5
20260504021535 47 0 0.0 0.0 0.00 0.00 0.00 65 1015.5
20260504020035 48 0 0.0 0.0 0.00 0.00 0.00 66 1015.5
20260504014530 48 0 0.0 0.0 0.00 0.00 0.00 61 1015.3
20260504013035 49 0 0.0 0.0 0.00 0.00 0.00 58 1015.3
20260504011528 50 0 0.0 0.0 0.00 0.00 0.00 55 1015.2
20260504010028 51 0 0.0 0.0 0.00 0.00 0.00 57 1015.2
20260504004539 52 0 0.0 0.0 0.00 0.00 0.00 55 1015.1
20260504003027 54 0 0.0 0.0 0.00 0.00 0.00 54 1015.0
20260504001535 55 0 0.0 0.0 0.00 0.00 0.00 44 1014.9
20260504000028 56 0 0.0 0.0 0.00 0.00 0.00 43 1014.8
20260503234534 58 0 0.0 2.0 0.00 0.00 0.00 42 1014.6
20260503233027 59 0 0.0 1.0 0.00 0.00 0.00 41 1014.5
20260503231528 60 0 0.0 4.0 0.00 0.00 0.00 39 1014.4
20260503230030 60 268 1.0 4.0 0.00 0.00 0.00 34 1014.3
20260503224529 60 260 0.0 5.0 0.00 0.00 0.00 34 1014.4
20260503223028 60 288 0.0 5.0 0.00 0.00 0.00 37 1014.5
20260503221533 60 262 1.0 5.0 0.00 0.00 0.00 35 1014.5
20260503220034 60 296 0.0 6.0 0.00 0.00 0.00 37 1014.5
20260503214537 61 290 2.0 8.0 0.00 0.00 0.00 34 1014.6
20260503213034 61 269 2.0 7.0 0.00 0.00 0.00 34 1014.5
20260503211526 61 0 0.0 5.0 0.00 0.00 0.00 36 1014.7
20260503210028 61 58 0.0 7.0 0.00 0.00 0.00 35 1014.6
20260503204529 61 43 0.0 4.0 0.00 0.00 0.00 37 1014.6
20260503203027 61 246 4.0 8.0 0.00 0.00 0.00 34 1014.7
20260503201530 61 288 2.0 6.0 0.00 0.00 0.00 36 1015.1
20260503200031 61 277 5.0 12.0 0.00 0.00 0.00 33 1015.0
20260503194532 61 293 0.0 7.0 0.00 0.00 0.00 39 1015.1
20260503193029 60 289 5.0 10.0 0.00 0.00 0.00 36 1015.6
20260503191529 60 282 3.0 9.0 0.00 0.00 0.00 37 1015.6
20260503190038 59 78 2.0 8.0 0.00 0.00 0.00 39 1015.8
20260503184531 60 294 2.0 7.0 0.00 0.00 0.00 37 1015.9
20260503183036 59 278 0.0 10.0 0.00 0.00 0.00 42 1016.2
20260503181546 60 257 3.0 11.0 0.00 0.00 0.00 38 1016.0
20260503180041 60 318 1.0 7.0 0.00 0.00 0.00 44 1016.4
20260503174531 59 309 0.0 10.0 0.00 0.00 0.00 43 1016.5